Regional Weather Roundup
Issued by NWS Northern Indiana

Home | Current Version | Previous Version | Graphics & Text | Print | Product List | Glossary On
Versions: 1 2 3 4 5 6 7 8 9 10 11 12 13 14 15 16 17 18 19 20 21 22 23 24 25 26 27 28 29 30 31 32 33 34 35 36 37 38 39 40 41 42 43 44 45 46 47 48 49 50
000
ASUS43 KIWX 251900
RWRIWX

KIWX WEATHER ROUNDUP
NATIONAL WEATHER SERVICE NORTHERN INDIANA
300 PM EDT SAT OCT 25 2014

NOTE: "FAIR" INDICATES FEW OR NO CLOUDS BELOW 12,000 FEET WITH NO
SIGNIFICANT WEATHER AND/OR OBSTRUCTIONS TO VISIBILITY.

* THESE STATIONS ARE NOT UNDER NWS QUALITY CONTROL. THEY ALSO MAY NOT
  REPORT WEATHER SUCH AS PRECIPITATION OR FOG.

INZ001>027-252000-
NORTHERN INDIANA

CITY           SKY/WX    TMP DP  RH WIND       PRES   REMARKS
GARY*          MOSUNNY   73  34  23 NW14      29.92F
SOUTH BEND     NOT AVBL
GOSHEN         SUNNY     67  45  45 W16G25    29.88F
ANGOLA*          N/A     68  50  52 W13       29.86S
FORT WAYNE     MOSUNNY   70  51  51 NW13G21   29.89F
PERU/GRISSOM   SUNNY     68  57  68 NW16      29.92F

$$
INZ028>050-252000-
CENTRAL INDIANA

CITY           SKY/WX    TMP DP  RH WIND       PRES   REMARKS
LAFAYETTE      SUNNY     71  54  54 NW12      29.94F
KOKOMO*        SUNNY     70  52  52 NW17      29.93S
MUNCIE*        SUNNY     74  50  42 NW17G24   29.90F
INDIANAPOLIS   MOSUNNY   75  50  41 W14G22    29.94F

$$
MIZ043>046-050>051-056>058-064>065-071>073-077>080-252000-
SOUTHWEST LOWER MICHIGAN

CITY           SKY/WX    TMP DP  RH WIND       PRES   REMARKS
BATTLE CREEK   SUNNY     68  38  33 W22G29    29.83F
BENTON HARBOR  SUNNY     62  48  60 W12G21    29.90F
COLDWATER*     SUNNY     67  46  46 W17G26    29.84F
HILLSDALE*     SUNNY     67  45  44 W16G25    29.81F
HOLLAND        SUNNY     65  44  46 W17G29    29.86F
GRAND RAPIDS   MOSUNNY   66  35  31 W17G25    29.81F
KALAMAZOO      SUNNY     67  35  30 W20G32    29.85F
STURGIS*       SUNNY     66  46  48 W17G23    29.85F
THREE RIVERS*  FAIR      68  41  37 W17G24    29.86F

$$
OHZ001>008-015>018-024>025-252000-
NORTHWEST OHIO

CITY           SKY/WX    TMP DP  RH WIND       PRES   REMARKS
DEFIANCE       SUNNY     68  50  52 W14G22    29.85F
FINDLAY        SUNNY     72  52  49 W17G26    29.82F
TOLEDO EXPRESS SUNNY     67  51  56 W23       29.81F
TOLEDO METCALF SUNNY     68  52  56 W17       29.80F
LIMA           SUNNY     73  52  47 W20G28    29.86S

$$
AND FOR LAKE MICHIGAN COASTAL AND OPEN LAKE BUOY OBSERVATIONS

STATION/POSITION TEMP    WIND        PRES    VSBY  WAVE
                 AIR SEA DIR/SP/G                  HT/PER
                 (F)     (DEG/KT/KT) (MB)    (MI)  (FT/S)
CALUMET HARBOR    71     270/  6/ 10 1012.0F
MICHIGAN CITY     58     240/ 12/ 12   N/A
SAINT JOSEPH      61                 1013.9S
SOUTH LAKE BUOY   58 54  270/ 12/ 14 1012.6F         2/ 4

$$
&&



USA.gov is the U.S. government's official web portal to all federal, state and local government web resources and services.